Location: Jastrz?bniki
(50.3667°N, 20.3833°E)
Time: 10:30:17
(UTC+00:00)

IDEFIX/ARIANE 42P - Pass Details

Date: 05 August 2024
Orbit: 782 x 799 km, 98.5° (Epoch: 06 September)

Event Time Altitude Azimuth Distance (km) Brightness Sun altitude
Rises 00:05:49 0° 18° (NNE) 3,283 7.4 -20.4°
Reaches altitude 10° 00:08:12 10° 23° (NNE) 2,350 6.2 -20.3°
Maximum altitude 00:13:16 53° 100° (E) 960 3.0 -20.0°
Enters shadow 00:15:35 30° 162° (SSE) 1,372 3.4 -19.8°
